Date,TemperatureHighF,TemperatureAvgF,TemperatureLowF,DewpointHighF,DewpointAvgF,DewpointLowF,HumidityHigh,HumidityAvg,HumidityLow,PressureMaxIn,PressureMinIn,WindSpeedMaxMPH,WindSpeedAvgMPH,GustSpeedMaxMPH,PrecipitationSumIn
2013-1-1,68.4,52.6,40.1,39.3,25.0,5.1,87,44,10,30.08,29.92,16,3,16,0.00
2013-1-2,78.6,58.3,42.4,30.7,17.4,2.4,59,25,10,29.98,29.87,19,3,23,0.00
2013-1-3,80.1,55.8,38.7,30.1,22.6,8.9,62,34,10,30.01,29.89,6,2,11,0.00
2013-1-4,78.3,56.2,38.3,25.2,18.6,7.5,55,30,10,30.11,30.01,7,2,9,0.00
2013-1-5,76.5,60.1,46.0,40.2,30.9,11.1,78,42,10,29.92,29.82,5,2,7,0.00
2013-1-6,62.6,52.2,45.0,49.2,43.0,39.7,90,72,47,29.85,29.66,7,2,13,0.01
2013-1-7,72.5,53.9,40.1,44.5,35.4,20.7,89,57,15,29.74,29.62,8,2,9,0.00
2013-1-8,80.8,56.8,40.1,50.4,40.7,30.2,79,59,22,29.75,29.65,5,1,6,0.00
2013-1-9,77.0,57.7,44.6,50.2,44.3,39.5,84,65,27,29.77,29.65,5,2,6,0.00
2013-1-10,54.1,54.0,54.0,48.6,47.9,47.4,82,80,78,29.65,29.62,2,1,4,0.00
2013-1-11,60.1,46.3,33.3,29.1,22.7,13.6,69,43,16,29.82,29.68,11,4,18,0.00
2013-1-12,67.3,46.7,32.9,31.3,21.4,5.4,67,43,10,29.79,29.70,12,2,16,0.00
2013-1-13,65.7,47.1,33.1,28.1,20.0,4.9,74,41,10,29.80,29.69,8,2,11,0.00
2013-1-14,66.9,48.9,39.2,19.5,3.4,-10.8,37,17,10,29.96,29.77,19,6,28,0.00
2013-1-15,67.5,48.8,34.7,28.7,15.3,2.5,58,32,10,30.08,29.95,11,2,12,0.00
2013-1-16,73.0,47.4,37.9,30.9,26.9,21.1,63,49,14,29.99,29.80,4,1,5,0.00
2013-1-17,86.4,62.1,44.8,30.2,20.2,5.0,52,26,10,29.81,29.68,12,3,17,0.00
2013-1-18,86.0,66.9,52.3,23.2,16.2,7.8,30,15,10,29.77,29.68,13,3,17,0.00
2013-1-19,89.4,66.9,50.7,25.8,14.7,3.1,31,14,10,29.81,29.70,10,3,14,0.00
2013-1-20,89.6,67.0,47.3,27.7,19.5,3.2,35,19,10,29.78,29.63,10,2,14,0.00
2013-1-21,92.1,68.8,53.6,27.8,14.0,1.0,29,13,10,29.72,29.63,14,4,17,0.00
2013-1-22,93.0,65.1,48.0,28.5,17.1,1.4,30,17,10,29.74,29.65,13,1,13,0.00
2013-1-23,81.1,65.2,54.0,48.3,30.8,24.5,65,29,15,29.79,29.65,4,1,6,0.00
2013-1-24,74.1,60.9,54.3,55.8,52.6,46.6,88,75,52,29.85,29.75,11,3,14,0.66
2013-1-25,67.1,62.7,59.5,57.4,55.2,52.9,85,76,67,29.76,29.61,17,5,17,0.15
2013-1-26,71.8,61.8,56.7,64.9,56.7,53.9,94,84,69,29.64,29.53,7,2,8,0.35
2013-1-27,66.2,56.0,49.1,55.0,49.2,42.1,94,79,54,29.67,29.59,10,3,11,0.04
2013-1-28,71.6,52.0,40.6,43.8,35.5,18.2,89,60,13,29.82,29.65,11,3,11,0.00
2013-1-29,71.1,51.6,38.1,41.8,37.0,30.5,81,61,24,29.87,29.79,7,2,10,0.00
2013-1-30,77.9,57.5,41.5,45.1,39.5,33.1,86,57,21,29.98,29.84,8,2,11,0.00
2013-1-31,88.0,62.9,44.8,45.7,37.8,23.9,79,47,10,29.88,29.72,8,2,10,0.00
2013-2-1,83.7,63.8,46.6,45.3,40.5,34.6,73,47,18,29.81,29.73,8,2,8,0.00
2013-2-2,84.2,66.7,54.7,53.7,44.1,31.5,73,49,16,29.82,29.73,4,1,7,0.00
2013-2-3,85.6,66.6,54.3,54.1,47.1,39.0,78,54,20,29.77,29.64,10,2,11,0.00
2013-2-4,77.2,60.9,46.9,53.1,48.4,42.4,86,66,38,29.73,29.61,7,2,10,0.00
2013-2-5,64.6,55.8,51.3,50.9,49.0,47.5,89,78,58,29.74,29.62,4,2,6,0.00
2013-2-6,72.0,58.8,48.0,49.0,46.5,43.9,86,65,39,29.75,29.64,8,2,10,0.00
2013-2-7,70.0,55.1,43.9,51.1,45.7,41.3,92,72,47,29.77,29.63,10,2,11,0.00
2013-2-8,57.0,48.6,41.4,47.2,41.4,36.9,89,76,62,29.64,29.52,8,3,11,0.45
2013-2-9,68.7,49.6,36.1,44.2,36.8,32.8,92,66,29,29.75,29.57,8,2,9,0.00
2013-2-10,62.4,50.7,41.0,45.2,39.7,36.8,86,68,43,29.75,29.65,5,2,8,0.00
2013-2-11,71.4,52.8,39.2,45.3,34.7,17.4,90,58,13,29.87,29.69,10,2,13,0.00
2013-2-12,73.0,53.4,37.4,39.7,34.1,28.4,80,52,19,29.98,29.87,7,2,10,0.00
2013-2-13,76.8,55.9,38.7,40.7,35.7,26.0,79,53,16,29.90,29.76,6,2,8,0.00
2013-2-14,85.1,59.6,41.4,48.1,37.8,20.8,83,52,10,29.84,29.68,7,2,10,0.00
2013-2-15,88.2,71.0,51.3,35.7,21.4,11.1,53,18,10,29.81,29.74,16,4,23,0.00
2013-2-16,93.6,69.0,50.4,28.9,20.7,6.8,38,18,10,29.78,29.61,9,3,13,0.00
2013-2-17,79.3,58.6,43.0,48.0,38.6,25.1,79,50,25,29.66,29.56,11,2,11,0.00
2013-2-18,73.2,58.3,50.9,46.6,44.9,42.7,81,63,34,29.71,29.59,10,4,10,0.00
2013-2-19,57.4,52.3,46.0,48.1,41.8,37.8,91,68,54,29.63,29.34,11,4,11,0.12
2013-2-20,66.6,51.8,37.8,43.4,34.8,26.5,88,57,26,29.63,29.33,12,5,15,0.01
2013-2-21,73.2,51.8,41.4,41.7,38.6,33.2,83,64,23,29.69,29.61,8,2,11,0.00
2013-2-22,84.2,69.7,48.0,49.7,39.6,27.8,70,37,17,29.91,29.82,9,2,10,0.58
2013-2-23,72.1,55.8,40.5,46.0,38.6,30.6,82,57,24,29.89,29.65,9,3,11,0.00
2013-2-24,82.4,58.1,40.5,42.4,22.2,4.9,86,36,10,29.92,29.71,11,3,13,0.00
2013-2-25,77.0,56.9,37.9,42.3,25.0,10.5,77,37,10,29.94,29.80,8,2,11,0.00
2013-2-26,86.7,59.0,39.7,45.2,35.4,4.1,80,49,10,29.83,29.69,11,2,12,0.00
2013-2-27,86.5,66.5,49.6,24.5,15.7,1.7,32,15,10,29.98,29.83,10,3,13,0.00
2013-2-28,88.3,66.3,46.9,24.9,19.6,10.8,36,19,10,30.03,29.93,11,2,13,0.00
2013-3-1,96.4,72.0,51.1,31.1,23.7,10.8,38,19,10,30.02,29.85,12,3,15,0.00
2013-3-2,92.7,72.6,55.0,34.4,27.2,17.4,42,22,10,29.93,29.78,8,2,8,0.00
2013-3-3,78.6,62.5,52.3,51.3,43.5,32.6,81,52,22,29.83,29.70,8,2,9,0.00
2013-3-4,80.4,62.1,52.3,51.5,49.6,47.7,85,66,33,29.82,29.73,9,2,11,0.00
2013-3-5,72.3,57.7,49.6,52.7,49.3,45.9,87,74,47,29.84,29.75,7,2,11,0.00
2013-3-6,74.7,60.3,48.0,49.1,44.1,40.6,81,58,30,29.88,29.74,9,3,10,0.00
2013-3-7,65.1,56.8,51.6,51.1,47.0,41.9,90,71,47,29.74,29.58,8,2,8,0.04
2013-3-8,61.5,52.6,46.9,49.9,45.1,39.4,92,76,51,29.75,29.50,8,3,11,0.44
2013-3-9,73.8,57.4,47.1,50.4,44.4,38.6,88,65,34,29.94,29.74,8,2,8,0.00
2013-3-10,85.8,61.9,41.5,47.0,35.1,18.2,88,47,10,29.98,29.86,11,2,12,0.00
2013-3-11,88.3,64.1,44.6,45.8,37.5,25.6,71,44,11,29.91,29.76,7,2,8,0.00
2013-3-12,90.9,67.0,45.9,50.9,45.0,37.1,85,52,16,29.81,29.71,6,2,7,0.00
2013-3-13,95.2,70.2,49.6,54.3,49.0,43.5,82,52,21,29.83,29.73,5,2,7,0.00
2013-3-14,92.5,70.6,49.5,55.4,49.9,43.7,91,54,21,29.81,29.71,7,2,8,0.00
2013-3-15,86.5,65.7,52.3,55.7,52.0,49.2,90,66,31,29.77,29.65,6,2,9,0.00
2013-3-16,79.9,62.4,54.0,52.6,50.7,48.9,89,69,37,29.70,29.60,8,3,8,0.00
2013-3-17,82.4,64.6,55.0,52.9,50.9,49.0,82,64,34,29.73,29.64,7,3,9,0.00
2013-3-18,71.8,59.7,53.1,53.0,50.5,48.4,86,73,48,29.81,29.71,5,2,8,0.00
2013-3-19,78.8,60.4,48.9,54.1,50.1,45.9,91,71,39,29.85,29.77,7,2,9,0.00
2013-3-20,80.1,63.3,51.3,55.7,51.4,47.4,89,67,38,29.83,29.69,6,2,8,0.00
2013-3-21,82.0,64.3,50.9,54.2,50.6,46.9,88,65,35,29.68,29.52,8,2,10,0.00
2013-3-22,80.4,63.1,53.2,53.2,50.5,46.6,88,67,37,29.64,29.53,8,2,10,0.00
2013-3-23,83.8,62.9,47.3,53.3,49.3,44.2,89,65,33,29.74,29.63,8,2,8,0.00
2013-3-24,83.1,60.4,51.4,55.1,51.0,47.7,89,75,33,29.74,29.67,5,2,9,0.00
2013-3-26,81.3,65.8,56.8,54.4,51.4,45.2,86,63,29,29.69,29.61,8,2,8,0.00
2013-3-27,81.1,64.9,54.9,53.0,50.9,47.2,84,64,31,29.76,29.65,9,2,9,0.00
2013-3-28,86.5,66.9,54.1,54.7,52.0,49.4,86,63,29,29.80,29.71,8,2,8,0.00
2013-3-29,85.1,65.1,53.8,57.4,53.6,49.7,89,69,37,29.83,29.75,8,3,8,0.00
2013-3-30,81.9,67.1,55.9,56.4,52.7,47.6,87,64,36,29.85,29.76,8,3,8,0.00
2013-3-31,77.5,64.1,54.9,56.4,53.0,49.6,84,69,46,29.85,29.76,11,3,11,0.00
2013-4-1,73.8,62.4,55.2,52.5,50.5,46.2,84,67,38,29.90,29.79,10,3,10,0.00
2013-4-2,82.6,64.7,53.1,55.8,51.9,49.6,90,66,33,29.82,29.69,8,2,10,0.00
2013-4-3,86.9,68.2,54.3,56.8,53.3,48.3,86,63,32,29.81,29.68,6,2,10,0.00
2013-4-4,60.1,59.4,58.8,54.2,53.8,53.5,83,82,81,29.81,29.78,3,1,4,0.00
2013-4-5,79.0,61.9,51.3,54.2,51.0,47.4,89,70,38,30.35,30.25,8,2,8,0.00
2013-4-6,80.1,63.3,50.9,55.5,51.1,46.9,88,67,38,30.31,30.12,8,2,8,0.00
2013-4-7,82.0,64.6,53.4,54.2,51.2,49.6,88,66,35,30.14,30.02,7,2,7,0.00
2013-4-8,80.4,71.6,59.4,53.2,43.1,26.1,63,38,17,30.11,29.85,14,6,21,0.00
2013-4-9,84.0,67.4,49.5,43.2,30.9,12.9,69,31,10,30.22,30.03,17,4,21,0.00
2013-4-10,75.2,55.4,47.8,44.5,37.6,32.6,64,53,21,30.32,30.22,4,1,7,0.00
2013-4-11,85.3,66.7,50.7,53.4,42.8,22.5,74,47,10,30.23,30.00,8,2,8,0.00
2013-4-12,82.8,66.9,56.8,54.4,51.8,49.5,81,61,34,30.12,29.99,9,3,9,0.00
2013-4-13,68.9,60.5,55.6,55.3,53.2,50.7,85,77,62,30.14,30.06,4,2,4,0.00
2013-4-14,69.8,60.0,55.4,52.3,49.9,48.0,84,70,51,30.11,30.04,7,2,7,0.00
2013-4-15,71.1,60.1,56.3,55.6,50.4,47.9,84,71,47,30.13,30.06,9,3,9,0.01
2013-4-16,74.5,60.1,50.5,49.0,43.1,35.1,80,57,27,30.20,30.09,10,3,15,0.00
2013-4-17,85.6,64.1,45.0,42.7,27.5,13.0,72,33,10,30.34,30.21,14,3,15,0.00
2013-4-18,91.0,70.2,50.9,34.7,23.0,5.3,49,21,10,30.42,30.31,23,6,23,0.00
2013-4-19,94.3,73.5,50.2,34.1,27.3,21.7,43,22,10,30.38,30.19,12,3,15,0.00
2013-4-20,79.0,61.7,51.3,54.2,50.9,47.4,89,70,38,30.07,29.97,8,2,8,0.00
2013-4-21,80.1,63.0,50.9,55.5,51.2,46.9,88,68,38,30.03,29.84,8,2,8,0.00
2013-4-22,82.0,64.7,53.4,54.2,51.3,49.6,88,66,35,29.87,29.75,7,2,7,0.00
2013-4-23,86.4,73.2,59.2,53.3,51.8,49.6,74,49,30,29.92,29.76,8,4,10,0.01
2013-4-24,66.7,62.3,58.6,55.3,51.8,45.9,80,69,55,29.93,29.85,7,3,8,0.00
2013-4-25,79.3,65.9,56.5,53.8,50.7,46.8,81,61,33,30.06,29.91,10,2,10,0.00
2013-4-26,87.8,68.5,50.5,53.1,49.8,46.5,87,56,28,30.10,30.02,8,2,10,0.00
2013-4-27,88.0,70.5,53.4,58.6,53.2,48.1,83,58,29,30.09,29.92,7,2,11,0.00
2013-4-28,88.5,70.6,59.0,58.4,55.9,54.0,84,63,35,29.97,29.79,7,2,10,0.00
2013-4-29,82.0,68.4,60.1,57.8,55.4,53.3,83,66,41,29.85,29.72,6,3,9,0.00
2013-4-30,79.3,65.4,59.0,56.2,53.3,51.8,78,66,43,29.84,29.75,11,3,11,0.00
2013-5-1,87.3,70.7,60.4,57.1,54.8,52.8,80,60,32,30.03,29.84,8,2,10,0.00
2013-5-2,104.2,79.0,55.6,55.8,42.1,24.1,86,39,10,30.06,29.91,19,5,28,0.00
2013-5-3,102.4,82.1,60.1,41.8,30.5,15.3,38,18,10,29.95,29.72,11,2,11,0.00
2013-5-4,85.5,70.4,59.9,55.9,50.4,40.5,70,50,35,29.80,29.68,9,3,9,0.00
2013-5-5,77.7,65.3,61.0,54.7,51.7,49.9,76,62,41,29.90,29.78,8,3,11,0.00
2013-5-6,75.2,63.8,56.5,62.6,54.6,51.1,92,74,45,29.95,29.85,10,3,10,0.61
2013-5-7,83.7,66.6,54.3,54.6,50.5,46.3,88,60,28,30.01,29.93,8,2,10,0.00
2013-5-8,78.6,66.5,57.7,56.5,51.1,45.4,85,60,35,30.03,29.99,11,3,13,0.00
2013-5-9,82.0,66.8,54.5,56.5,53.4,48.8,87,64,39,30.04,29.95,8,2,11,0.01
2013-5-10,90.1,72.3,57.2,60.7,57.0,53.2,88,62,34,30.03,29.93,8,2,10,0.00
2013-5-11,95.5,75.8,57.2,63.3,59.4,54.0,90,61,33,30.01,29.91,7,2,11,0.00
2013-5-12,103.8,80.8,62.1,64.2,57.8,45.4,87,52,17,30.00,29.84,8,2,10,0.00
2013-5-13,106.3,85.9,66.4,57.3,50.5,37.5,67,35,10,29.90,29.80,8,2,13,0.00
2013-5-14,92.5,76.4,63.3,59.0,53.9,46.4,73,49,22,29.94,29.84,8,2,9,0.00
2013-5-15,85.5,71.0,61.5,58.2,55.5,53.9,78,60,38,29.97,29.88,8,3,12,0.00
2013-5-16,83.3,69.0,61.3,57.5,54.9,53.4,76,62,39,29.92,29.82,8,3,10,0.00
2013-5-17,81.3,70.3,62.4,58.3,56.3,53.3,82,62,44,29.94,29.84,8,3,12,0.00
2013-5-18,85.8,71.5,61.9,57.4,55.4,52.6,78,59,36,29.98,29.90,9,2,13,0.00
2013-5-19,87.1,72.0,59.2,59.1,55.9,51.4,81,59,37,29.94,29.81,8,3,14,0.00
2013-5-20,93.0,75.4,60.4,60.8,58.1,53.7,79,58,33,29.89,29.81,8,2,11,0.00
2013-5-21,91.0,73.6,64.0,61.7,59.1,56.3,82,64,31,29.88,29.76,8,3,10,0.00
2013-5-22,85.5,71.4,63.3,58.3,56.3,54.5,79,61,39,29.80,29.70,7,3,9,0.00
2013-5-23,82.9,70.3,61.3,55.9,53.5,50.9,77,57,35,29.87,29.76,8,3,13,0.00
2013-5-24,82.9,69.2,59.5,55.1,52.6,50.9,74,57,36,29.93,29.86,8,3,11,0.00
2013-5-25,86.4,69.7,56.5,55.4,51.9,47.8,77,56,28,29.97,29.90,8,3,12,0.00
2013-5-26,83.5,70.3,58.5,55.9,53.7,50.3,78,58,36,29.99,29.93,10,3,10,0.00
2013-5-27,85.8,71.0,58.3,58.4,55.4,52.1,82,60,37,29.94,29.80,7,3,8,0.00
2013-5-28,84.4,71.6,62.2,60.4,57.7,55.9,80,63,40,29.83,29.68,8,2,9,0.00
2013-5-29,90.5,73.3,61.3,61.4,58.1,54.8,83,62,35,29.76,29.65,9,3,11,0.00
2013-5-30,90.1,73.4,59.5,61.9,58.5,55.4,87,63,34,29.82,29.70,9,3,11,0.00
2013-5-31,90.7,74.0,63.7,62.2,59.3,57.1,79,63,36,29.85,29.74,6,3,10,0.00
2013-6-1,95.2,76.2,65.8,64.9,61.7,59.5,80,63,36,29.80,29.69,7,3,11,0.00
2013-6-2,84.2,71.9,64.8,62.8,60.1,57.0,82,68,46,29.78,29.71,8,2,9,0.00
2013-6-3,85.6,71.8,64.0,60.6,57.6,56.0,76,63,42,29.83,29.74,8,3,11,0.00
2013-6-4,86.4,70.5,63.1,58.9,57.4,56.1,81,65,38,29.91,29.83,7,3,11,0.00
2013-6-5,87.3,71.0,62.2,58.5,56.7,54.5,80,63,35,29.94,29.83,11,3,11,0.00
2013-6-6,86.0,70.7,61.0,61.1,57.7,55.1,83,66,42,29.89,29.80,9,3,11,0.00
2013-6-7,87.1,69.9,62.2,61.3,57.8,56.3,81,67,41,29.85,29.72,7,3,8,0.00
2013-6-8,84.4,70.6,63.0,61.3,58.6,56.8,82,67,44,29.84,29.73,8,2,10,0.00
2013-6-9,86.0,70.4,62.6,61.3,58.0,54.9,79,67,43,29.87,29.80,7,2,9,0.00
2013-6-10,87.4,73.6,61.3,58.4,56.0,53.9,79,57,35,29.89,29.82,10,3,10,0.00
2013-6-11,95.2,77.0,61.3,63.3,59.3,54.8,81,57,31,29.88,29.81,6,2,9,0.00
2013-6-12,85.6,71.4,65.3,62.1,59.7,57.5,79,68,44,29.97,29.86,7,3,11,0.00
2013-6-13,89.4,74.4,65.1,60.3,58.6,57.4,76,60,37,29.95,29.83,8,2,10,0.00
2013-6-14,86.9,71.9,62.2,60.3,57.8,54.9,81,63,40,29.86,29.78,10,2,11,0.00
2013-6-15,87.1,71.1,62.2,58.0,56.1,53.9,77,61,35,29.92,29.83,8,3,9,0.00
2013-6-16,90.1,73.4,61.9,59.1,57.0,54.9,79,60,33,29.98,29.87,9,3,10,0.00
2013-6-17,91.2,73.8,59.2,61.4,58.0,54.2,87,62,31,29.93,29.82,8,2,9,0.00
2013-6-18,89.8,74.1,60.3,61.6,58.7,54.8,85,62,35,29.86,29.77,8,2,10,0.00
2013-6-19,90.1,74.8,64.2,60.8,57.4,53.6,79,58,31,29.82,29.73,8,3,13,0.00
2013-6-20,91.2,75.9,60.1,60.6,55.5,47.5,78,52,28,29.81,29.74,8,2,8,0.00
2013-6-21,91.9,75.3,60.1,60.1,55.4,47.1,79,54,23,29.85,29.77,8,2,12,0.00
2013-6-22,88.7,74.4,61.7,60.5,57.3,48.3,83,59,27,29.85,29.75,10,3,10,0.00
2013-6-23,84.2,71.2,64.0,59.6,57.8,56.5,79,64,42,29.83,29.73,7,3,10,0.00
2013-6-24,87.3,72.3,64.6,60.1,58.1,55.5,79,63,38,29.88,29.76,7,2,11,0.00
2013-6-25,87.8,73.1,64.8,63.4,60.4,58.3,83,66,41,29.93,29.83,7,2,11,0.00
2013-6-26,97.0,80.4,64.9,65.3,61.5,57.8,78,56,31,29.93,29.82,7,2,8,0.00
2013-6-27,97.7,80.8,66.4,67.2,63.3,59.4,85,60,29,29.96,29.89,8,2,9,0.00
2013-6-28,102.4,84.4,64.0,67.7,63.1,57.9,90,54,25,29.94,29.77,9,2,9,0.00
2013-6-29,102.6,85.0,66.7,67.0,63.8,60.7,84,53,28,29.84,29.68,8,2,8,0.00
2013-6-30,99.5,81.7,67.6,68.0,65.0,62.3,86,60,34,29.77,29.66,6,2,9,0.00
2013-7-1,105.6,80.7,66.4,67.4,63.9,54.9,89,62,20,29.84,29.75,8,2,8,0.00
2013-7-2,92.7,78.1,65.3,68.9,64.4,61.4,89,65,41,29.93,29.83,8,2,12,0.00
2013-7-3,93.6,78.6,67.3,67.0,63.9,60.8,85,63,39,29.89,29.75,5,2,9,0.00
2013-7-4,93.6,78.5,67.8,65.2,62.2,59.1,81,61,33,29.79,29.69,10,3,10,0.00
2013-7-5,91.8,77.1,68.0,64.8,62.5,60.9,78,63,39,29.79,29.71,8,3,10,0.00
2013-7-6,92.1,75.3,68.4,64.5,62.6,61.4,79,67,40,29.78,29.70,6,2,8,0.00
2013-7-7,92.5,76.7,68.2,67.0,63.7,62.1,82,66,41,29.78,29.73,8,3,9,0.00
2013-7-12,94.5,78.9,68.9,68.9,64.6,60.2,84,64,37,29.88,29.79,8,2,8,0.00
2013-7-13,95.5,78.9,66.7,65.6,62.5,60.4,85,60,35,29.91,29.79,8,3,8,0.00
2013-7-14,97.9,79.0,67.1,65.8,61.8,55.5,84,60,25,29.88,29.76,10,2,10,0.00
2013-7-15,97.2,80.6,66.9,66.4,59.6,49.8,82,53,23,29.82,29.73,10,2,10,0.00
2013-7-16,97.3,77.3,56.8,58.7,52.0,37.4,75,46,13,29.93,29.81,10,2,10,0.00
2013-7-17,98.4,78.9,58.1,60.7,50.6,29.5,82,44,10,29.96,29.88,11,2,11,0.00
2013-7-18,95.5,75.1,58.8,61.9,55.6,47.7,75,53,27,29.94,29.80,9,2,11,0.00
2013-7-19,90.7,76.3,63.5,64.0,60.3,55.3,80,60,38,29.86,29.77,6,2,8,0.00
2013-7-20,86.4,73.0,66.9,66.0,62.6,60.6,81,71,48,29.84,29.75,5,2,7,0.04
2013-7-21,80.4,71.6,66.7,65.6,62.8,60.9,83,74,60,29.87,29.75,5,2,8,0.00
2013-7-22,92.7,78.7,67.1,66.7,63.3,60.9,84,62,37,29.93,29.86,9,2,10,0.00
2013-7-23,93.7,77.8,68.0,65.2,62.1,58.5,79,61,37,29.97,29.86,7,2,9,0.00
2013-7-24,94.1,77.8,65.3,64.5,61.3,58.6,82,59,36,29.92,29.83,9,3,10,0.00
2013-7-25,93.2,77.6,66.2,64.1,61.0,59.2,78,59,34,29.96,29.86,8,2,9,0.00
2013-7-26,97.0,78.9,68.4,65.2,62.3,59.7,75,59,33,30.03,29.90,6,2,8,0.00
2013-7-27,92.3,76.9,67.3,65.2,61.6,58.5,78,61,40,29.96,29.82,8,2,8,0.00
2013-7-28,90.5,73.4,65.1,63.4,60.6,57.8,83,67,39,29.88,29.81,8,2,8,0.00
2013-7-29,89.1,75.2,65.3,61.2,58.8,56.8,79,59,37,29.99,29.86,10,3,10,0.00
2013-7-30,90.3,72.8,62.1,61.5,57.8,55.3,79,62,35,30.07,29.96,7,2,11,0.00
2013-7-31,86.0,72.0,63.0,61.2,58.2,55.8,81,64,41,30.06,29.93,7,2,11,0.00
2013-8-1,94.6,80.7,64.0,65.1,61.1,56.3,76,53,37,29.98,29.80,7,3,11,0.00
2013-8-2,90.3,75.4,65.3,62.3,59.5,57.7,79,61,35,29.88,29.79,10,2,11,0.00
2013-8-3,92.1,75.3,67.1,62.3,60.4,58.9,77,62,36,29.89,29.82,10,3,11,0.00
2013-8-4,93.0,75.3,65.8,62.5,60.1,58.4,79,62,34,29.91,29.81,8,2,11,0.00
2013-8-5,92.5,73.6,61.7,62.3,58.6,55.3,84,63,33,29.91,29.81,9,2,10,0.00
2013-8-6,91.4,75.3,64.4,60.6,58.0,53.2,80,59,28,29.93,29.86,8,3,11,0.00
2013-8-7,90.1,73.3,61.0,61.1,57.8,53.9,86,62,31,29.99,29.86,7,2,12,0.00
2013-8-8,90.1,74.0,60.3,61.3,57.4,53.2,79,59,32,29.91,29.79,8,2,8,0.00
2013-8-9,88.7,72.2,62.2,60.1,58.4,55.6,82,65,37,29.86,29.81,7,2,11,0.00
2013-8-17,98.8,80.4,66.0,65.2,60.3,49.1,81,55,23,29.85,29.70,8,2,8,0.00
2013-8-18,91.8,76.2,62.1,64.8,61.3,58.6,90,64,37,29.81,29.72,9,2,9,0.00
2013-8-19,94.3,76.0,66.4,65.2,62.1,60.2,83,65,35,29.84,29.74,9,2,9,0.00
2013-8-20,95.9,77.6,66.0,64.5,61.3,58.2,83,61,30,29.83,29.72,11,2,11,0.00
2013-8-21,99.5,80.4,63.1,61.6,57.1,51.9,77,49,24,29.82,29.72,7,2,7,0.00
2013-8-22,102.7,81.7,65.1,59.6,52.3,33.4,70,42,10,29.82,29.69,8,2,8,0.00
2013-8-23,100.4,79.3,64.4,61.6,55.3,49.3,73,47,19,29.77,29.62,11,2,11,0.00
2013-8-24,98.4,78.0,62.1,63.7,60.1,56.5,82,58,26,29.78,29.65,5,2,10,0.00
2013-8-25,75.2,65.6,61.7,63.2,59.3,57.5,88,80,66,29.80,29.75,3,1,4,0.00
2013-9-2,102.4,83.6,69.1,71.2,67.3,65.1,90,61,31,29.93,29.80,8,2,8,0.00
2013-9-3,105.8,86.4,71.6,70.3,65.1,60.1,82,54,25,29.91,29.81,8,2,8,0.00
2013-9-4,106.9,88.0,70.7,68.0,61.0,53.3,75,45,18,29.91,29.83,9,2,9,0.00
2013-9-5,107.8,88.2,70.0,66.1,58.3,39.8,77,42,12,29.89,29.81,8,2,8,0.00
2013-9-6,109.0,88.3,69.6,63.5,56.0,42.5,78,40,13,29.88,29.78,8,2,8,0.00
2013-9-7,107.1,86.9,69.8,64.3,57.5,41.4,75,43,12,29.87,29.78,8,2,8,0.00
2013-9-8,100.0,80.4,68.0,65.1,60.0,54.1,78,53,23,29.86,29.75,7,2,8,0.00
2013-9-9,92.5,77.6,67.8,62.5,59.0,53.4,74,55,27,29.83,29.74,7,2,10,0.00
2013-9-10,89.6,74.7,64.8,62.0,59.5,58.1,82,62,36,29.96,29.82,9,2,9,0.00
2013-9-11,89.2,73.3,61.9,62.5,59.5,55.7,81,64,38,30.02,29.92,8,2,9,0.00
2013-9-12,97.7,77.9,62.1,63.6,58.7,52.9,82,56,24,29.95,29.82,8,2,9,0.00
2013-9-13,96.8,78.5,62.1,62.2,57.7,51.4,75,52,26,29.85,29.67,6,2,8,0.00
2013-9-14,98.1,80.3,65.7,65.6,60.4,55.8,73,53,31,29.73,29.63,5,2,8,0.00
2013-9-15,103.1,81.0,65.8,67.5,60.9,56.5,79,54,25,29.77,29.70,6,2,10,0.00
2013-9-16,101.1,81.3,65.1,63.6,57.4,48.8,72,49,19,29.83,29.73,8,2,11,0.00
2013-9-17,90.7,74.3,64.4,63.9,60.8,57.8,86,65,36,29.83,29.73,7,2,8,0.00
2013-9-18,88.3,73.2,64.0,60.6,59.1,57.3,82,64,35,29.83,29.75,8,2,11,0.00
2013-9-19,90.1,71.5,58.5,63.3,60.1,55.5,90,70,40,29.84,29.76,8,2,10,0.00
2013-9-20,76.5,70.4,67.5,63.4,61.7,60.5,79,74,63,29.90,29.82,5,2,10,0.00
2013-9-21,86.7,72.8,65.7,60.9,58.7,56.9,78,63,37,29.92,29.81,7,2,10,0.00
2013-9-22,86.2,72.4,60.6,60.5,55.5,46.8,84,59,32,29.87,29.79,7,2,9,0.00
2013-9-23,102.4,79.2,59.2,56.5,46.0,29.9,71,39,10,29.91,29.80,11,2,11,0.00
2013-9-24,95.5,79.1,62.6,59.6,48.5,36.4,71,40,14,29.94,29.84,8,2,13,0.00
2013-9-25,85.3,72.6,60.1,61.3,57.5,52.3,80,61,39,29.87,29.72,8,2,11,0.00
2013-9-26,82.8,70.4,61.0,58.4,51.1,27.3,75,54,14,29.90,29.73,11,3,14,0.00
2013-9-27,95.5,73.6,55.6,50.0,36.4,22.2,68,34,10,30.00,29.90,10,2,13,0.00
2013-9-28,100.0,76.7,54.1,42.3,34.0,26.9,53,25,10,30.05,29.95,9,2,11,0.00
2013-9-29,96.4,75.8,57.2,45.5,36.4,24.9,47,28,10,30.08,29.97,8,2,8,0.00
2013-9-30,94.5,75.3,56.8,55.7,44.3,27.1,66,38,10,30.00,29.86,6,2,11,0.00
2013-10-1,92.1,72.9,55.4,60.3,55.3,48.3,79,58,26,29.95,29.86,6,2,10,0.00
2013-10-2,85.8,71.5,63.3,60.2,57.9,55.3,79,65,36,29.99,29.88,7,3,10,0.00
2013-10-3,83.3,71.1,62.8,60.4,58.3,55.6,79,66,41,29.94,29.83,6,2,10,0.00
2013-10-4,96.3,78.0,61.5,59.3,38.3,15.9,82,37,10,30.04,29.89,18,6,25,0.00
2013-10-5,100.2,82.3,67.6,35.3,23.4,14.0,28,12,10,30.12,30.02,25,9,27,0.00
2013-10-6,100.2,79.9,61.0,33.9,26.7,14.7,28,15,10,30.10,29.95,8,2,13,0.00
2013-10-7,93.7,74.2,58.6,55.9,39.8,18.9,68,32,14,29.99,29.90,8,2,8,0.00
2013-10-8,83.7,69.0,56.5,59.4,54.6,49.3,86,62,38,29.95,29.83,8,2,11,0.00
2013-10-9,88.7,70.3,55.6,52.4,45.2,25.1,68,46,10,29.90,29.69,11,3,11,0.00
2013-10-10,95.4,73.4,55.4,52.2,38.6,21.3,79,36,10,29.94,29.82,11,3,11,0.09
2013-10-11,85.5,65.9,50.9,54.9,50.5,46.0,88,62,27,29.97,29.85,9,2,9,0.00
2013-10-12,85.8,66.1,51.4,60.1,53.6,47.6,93,68,36,29.91,29.80,8,2,8,0.00
2013-10-13,82.4,67.7,59.2,57.4,54.0,51.6,90,64,37,29.95,29.86,8,2,8,0.00
2013-10-14,100.4,70.9,54.9,56.4,47.9,29.7,88,54,10,29.95,29.80,7,2,8,0.00
2013-10-15,97.9,75.7,57.6,45.4,35.6,23.7,51,29,10,29.88,29.77,13,2,15,0.00
2013-10-16,98.4,78.4,62.4,35.4,25.7,12.3,34,16,10,29.99,29.88,18,4,19,0.00
2013-10-17,92.7,71.5,52.2,49.7,36.0,22.2,64,31,10,29.96,29.84,8,2,10,0.00
2013-10-18,96.3,73.3,54.1,53.9,44.4,26.3,64,41,10,29.94,29.83,7,2,8,0.00
2013-10-19,94.1,73.9,53.4,58.1,46.6,34.4,74,42,13,29.94,29.86,6,1,8,0.00
2013-10-20,88.9,68.1,53.6,59.1,53.5,45.4,94,63,33,29.92,29.81,6,1,7,0.00
2013-10-21,61.7,58.3,54.9,55.5,53.7,52.2,94,85,74,29.88,29.86,3,1,4,0.00
2013-10-22,87.6,65.8,52.2,60.6,55.8,49.0,92,73,39,29.95,29.82,6,2,6,0.00
2013-10-23,77.9,65.0,59.2,58.1,56.0,54.2,88,74,48,29.91,29.83,6,2,6,0.00
2013-10-24,79.9,65.3,58.3,56.8,54.7,53.1,84,70,42,29.99,29.89,6,2,6,0.00
2013-10-25,84.4,65.7,59.0,57.9,55.9,53.8,88,73,37,30.07,29.93,6,2,6,0.00
2013-10-26,84.4,65.1,52.2,61.9,56.5,50.2,95,76,45,30.03,29.89,7,1,7,0.00
2013-10-27,83.3,64.0,52.3,62.0,56.2,49.7,96,78,47,29.92,29.75,6,2,6,0.00
2013-10-28,72.7,61.4,54.3,56.0,51.5,47.0,88,71,43,29.88,29.75,11,4,14,0.00
2013-10-29,73.0,59.6,48.9,51.8,48.2,45.0,88,69,38,29.95,29.86,8,2,11,0.00
2013-10-30,82.2,61.9,48.4,55.3,47.4,39.6,92,64,23,30.00,29.91,7,2,9,0.00
2013-10-31,90.3,66.4,50.0,50.4,41.5,24.9,83,49,10,30.03,29.90,7,2,8,0.00
2013-11-1,99.5,71.0,48.6,44.9,35.6,24.1,70,36,10,30.03,29.85,5,1,8,0.00
2013-11-2,90.1,70.1,54.7,56.4,40.4,24.0,82,41,10,29.93,29.82,6,2,9,0.00
2013-11-3,79.7,65.5,57.0,55.8,53.8,51.3,84,68,39,29.87,29.76,7,2,8,0.00
2013-11-4,73.4,62.7,51.4,54.4,51.3,47.4,86,67,47,29.88,29.74,6,1,7,0.00
2013-11-5,91.0,64.5,48.4,49.0,34.0,18.1,94,44,10,30.08,29.89,6,2,11,0.00
2013-11-6,95.0,71.3,51.4,32.2,19.3,3.2,30,15,10,30.13,30.03,10,2,11,0.00
2013-11-7,98.1,72.8,56.8,35.3,25.3,7.9,33,18,10,30.05,29.92,5,1,7,0.00
2013-11-8,89.1,67.0,50.0,48.2,34.8,18.9,67,36,10,29.98,29.87,5,1,8,0.00
2013-11-9,89.1,64.3,47.7,53.1,42.8,25.5,83,53,10,30.02,29.93,6,1,6,0.00
2013-11-10,95.5,65.8,50.4,53.9,41.0,23.8,69,48,10,30.07,29.95,7,1,9,0.00
2013-11-11,91.8,65.4,48.7,53.2,44.6,33.0,80,53,13,30.07,29.94,5,1,6,0.00
2013-11-12,80.4,64.5,52.5,53.3,47.1,40.6,74,55,36,30.11,29.99,4,1,4,0.00
2013-11-13,103.8,75.3,53.1,49.2,38.3,12.7,66,33,10,29.99,29.81,7,1,8,0.00
2013-11-14,99.3,77.0,61.2,46.5,34.0,22.8,45,25,10,29.86,29.71,7,1,8,0.00
2013-11-15,76.1,65.2,59.0,56.8,54.4,42.0,82,69,45,29.71,29.61,7,2,8,0.00
2013-11-16,67.5,60.4,55.8,55.7,53.1,49.8,87,78,54,29.83,29.69,4,1,6,0.00
2013-11-17,81.0,64.7,52.7,54.3,50.6,46.5,85,63,31,30.03,29.88,7,1,7,0.00
2013-11-18,78.1,62.5,50.2,56.8,52.2,45.7,87,70,44,30.09,29.98,7,2,7,0.00
2013-11-19,70.0,61.5,55.9,55.3,52.7,51.4,86,73,56,30.03,29.88,5,1,7,0.00
2013-11-20,69.4,61.8,55.8,56.3,53.8,51.4,92,76,59,29.92,29.83,4,1,5,0.07
2013-11-21,69.4,60.4,54.0,60.6,56.2,50.2,97,87,64,29.83,29.77,7,2,10,0.22
2013-11-22,63.9,56.7,51.4,51.5,44.0,37.7,92,65,44,29.89,29.77,12,3,16,0.01
2013-11-23,75.4,60.4,49.5,43.7,39.5,37.1,69,48,26,30.03,29.88,9,3,12,0.00
2013-11-24,79.3,59.0,45.5,49.2,41.2,36.5,81,56,22,30.13,30.02,7,1,11,0.00
2013-11-25,82.8,60.9,46.2,48.8,41.5,34.8,80,55,20,30.17,30.08,6,1,9,0.00
2013-11-26,88.5,64.8,46.4,50.5,37.6,21.5,83,45,10,30.13,29.98,9,2,16,0.00
2013-11-27,85.8,64.4,51.8,43.7,38.4,29.4,62,42,13,29.98,29.81,4,1,8,0.00
2013-11-28,79.9,62.6,49.5,50.5,41.6,33.0,71,49,19,30.00,29.82,6,1,7,0.00
2013-11-29,70.9,59.3,53.6,56.5,48.9,45.3,91,70,45,30.13,29.99,8,2,12,0.18
2013-11-30,82.0,64.7,50.5,53.7,46.9,42.8,87,57,25,30.11,30.00,6,1,9,0.00
2013-12-1,93.4,68.3,51.1,46.0,35.4,22.5,72,37,10,30.15,30.03,5,1,8,0.00
2013-12-2,83.1,62.4,49.8,46.8,38.4,30.0,67,44,15,30.05,29.85,4,1,6,0.00
2013-12-3,73.2,57.9,45.0,53.9,46.7,37.5,81,67,46,29.85,29.69,8,2,9,0.00
2013-12-4,72.7,55.6,45.0,45.2,38.6,33.2,82,56,26,29.91,29.72,8,2,8,0.00
2013-12-5,70.5,52.2,39.6,44.3,36.1,29.7,83,58,25,30.04,29.89,7,1,8,0.00
2013-12-6,68.0,50.4,41.4,41.5,38.4,35.3,81,65,35,30.12,30.03,5,1,8,0.00
2013-12-7,59.9,48.3,40.8,51.2,41.6,36.5,90,78,59,30.06,29.93,7,1,7,0.17
2013-12-8,67.8,47.2,35.4,43.5,36.2,33.1,92,70,30,30.14,30.03,4,1,7,0.01
2013-12-9,69.6,51.0,35.6,34.5,13.5,-6.3,78,32,10,30.23,30.13,14,3,19,0.00
2013-12-10,76.3,56.9,45.0,15.8,4.2,-7.3,24,12,10,30.20,30.01,11,3,12,0.00
2013-12-11,84.4,59.3,41.5,32.6,19.8,10.7,43,24,10,30.10,30.03,12,1,12,0.00
2013-12-12,76.8,58.0,44.6,45.5,37.1,17.6,87,53,12,30.15,30.07,5,1,6,0.00
2013-12-13,75.9,55.3,41.5,46.4,41.1,33.7,90,65,23,30.16,30.06,4,0,6,0.00
2013-12-14,82.6,61.0,43.9,42.3,28.7,16.3,86,39,10,30.22,30.11,5,1,8,0.00
2013-12-15,94.3,68.4,48.0,29.4,20.3,12.3,38,18,10,30.18,30.00,12,1,12,0.00
2013-12-16,95.7,71.5,57.2,44.2,30.5,17.2,54,25,10,30.06,29.98,5,0,10,0.00
2013-12-17,85.6,68.0,54.7,46.8,39.7,33.7,59,38,17,30.06,29.95,3,0,5,0.00
2013-12-18,79.7,62.7,55.0,55.6,48.5,39.8,85,62,24,29.95,29.79,7,1,8,0.00
2013-12-19,57.7,53.0,45.5,51.2,48.0,43.3,92,83,72,29.80,29.66,7,1,8,0.26
2013-12-20,71.6,53.4,41.2,50.9,45.0,39.3,94,76,41,29.89,29.70,4,1,6,0.00
2013-12-21,66.7,52.8,43.2,50.4,45.5,39.9,93,78,52,30.02,29.86,4,0,6,0.01
2013-12-22,81.1,56.9,42.3,51.7,46.4,40.9,96,73,31,30.20,30.02,4,1,5,0.00
2013-12-23,88.3,63.5,44.8,51.7,37.4,26.3,87,47,11,30.25,30.12,7,1,8,0.00
2013-12-24,87.8,66.3,52.5,44.0,35.6,22.6,55,37,10,30.13,30.01,4,1,6,0.00
2013-12-25,92.1,70.6,51.8,36.2,21.0,6.1,55,18,10,30.14,30.03,15,2,17,0.00
2013-12-26,90.1,68.4,52.9,26.3,14.1,3.0,23,13,10,30.11,29.99,14,2,16,0.00
2013-12-27,95.7,68.5,50.7,30.5,19.6,0.2,32,17,10,30.09,29.97,5,0,9,0.00
2013-12-28,83.3,62.4,46.8,45.5,31.5,16.7,77,37,10,29.98,29.86,6,0,8,0.00
2013-12-29,87.8,60.0,41.7,44.1,27.0,12.0,83,40,10,30.08,29.94,6,1,8,0.00
2013-12-30,86.2,60.2,41.5,30.9,21.9,13.7,44,27,10,30.20,30.08,4,0,6,0.00
2013-12-31,82.0,55.4,41.5,32.2,25.3,15.2,57,38,10,30.14,30.03,4,0,5,0.00
2014-1-1,82.9,58.3,41.0,49.0,38.8,32.5,82,54,18,29.97,29.87,4,0,4,0.00
2014-1-2,90.1,63.4,45.5,47.1,41.2,28.1,86,52,11,29.93,29.82,4,0,5,0.00